Location: site
(53.0000°N, 23.0500°E)
Time: 22:27:06
(UTC+01:00)

SAOCOM 1-A - Pass Details

Date: 26 January 2020
Orbit: 621 x 623 km, 97.9° (Epoch: 24 February)

Event Time Altitude Azimuth Distance (km) Brightness Sun altitude
Rises 03:24:39 0° 125° (SE) 2,899 ? -35.2°
Reaches altitude 10° 03:27:11 10° 111° (ESE) 1,997 ? -34.8°
Enters shadow 03:30:22 23° 64° (ENE) 1,354 ? -34.3°
